Weather History for Savanna, IL

Change the Weather History Date:

Tuesday, November 1, 2011

  Actual Average (KCWI) Record (KCWI)
Temperature  
Mean Temperature 52 °F -  
Max Temperature 71 °F 57 °F 78 °F (1950)
Min Temperature 32 °F 41 °F 18 °F (1993)
Degree Days  
Heating Degree Days 14    
Growing Degree Days 2 (Base 50)    
Moisture  
Dew Point 37 °F    
Average Humidity 70    
Maximum Humidity 100    
Minimum Humidity 35    
Precipitation  
Precipitation 0.00 in - - ()
Sea Level Pressure  
Sea Level Pressure 30.03 in    
Wind  
Wind Speed 5 mph (SSE)    
Max Wind Speed 18 mph    
Max Gust Speed 23 mph    
Visibility 8 miles    
Events      
Averages and records for this station are not official NWS values.
T = Trace of Precipitation, MM = Missing Value Source: NWS Daily Summary

Daily Weather History Graph

Daily Weather History Graph

Search for Another Location

Airport:

Trip Planner

Search our weather history database for the weather conditions in past years. The results will help you decide how hot, cold, wet, or windy it might be!

Date:

Astronomy

Nov. 01, 2011 Rise Set
Actual Time 7:32 AM CDT 5:54 PM CDT
Civil Twilight 7:03 AM CDT 6:23 PM CDT
Nautical Twilight 6:30 AM CDT 6:56 PM CDT
Astronomical Twilight 5:58 AM CDT 7:29 PM CDT
Moon 1:20 PM CDT (11/1) 11:36 PM CDT (11/1)
Length of Visible Light 11h 19m
Length of Day
10h 21m
Waxing Crescent, 40% of the Moon is Illuminated
Nov 1
Waxing Crescent
Nov 2
First Quarter
Nov 10
Full
Nov 18
Last Quarter
Nov 25
New

Hourly Weather History & Observations

Time (CDT) Temp. Windchill Dew Point Humidity Pressure Visibility Wind Dir Wind Speed Gust Speed Precip Events Conditions
12:15 AM 33.8 °F - 32.0 °F 93% 30.10 in 5.0 mi Calm Calm - N/A   Clear
12:35 AM 33.8 °F - 32.0 °F 93% 30.10 in 5.0 mi Calm Calm - N/A   Clear
12:55 AM 33.8 °F - 33.8 °F 100% 30.10 in 2.5 mi Calm Calm - N/A   Clear
1:15 AM 32.0 °F - 32.0 °F 100% 30.10 in 0.8 mi Calm Calm - N/A   Mist
1:35 AM 32.0 °F - 32.0 °F 100% 30.10 in 2.5 mi Calm Calm - N/A   Clear
1:55 AM 32.0 °F - 32.0 °F 100% 30.10 in 4.0 mi Calm Calm - N/A   Clear
2:15 AM 32.0 °F - 32.0 °F 100% 30.10 in 4.0 mi Calm Calm - N/A   Clear
2:35 AM 32.0 °F - 32.0 °F 100% 30.10 in 3.0 mi Calm Calm - N/A   Clear
2:55 AM 32.0 °F - 32.0 °F 100% 30.10 in 4.0 mi Calm Calm - N/A   Clear
3:15 AM 32.0 °F - 32.0 °F 100% 30.09 in 5.0 mi Calm Calm - N/A   Clear
3:35 AM 32.0 °F - 32.0 °F 100% 30.09 in 3.0 mi Calm Calm - N/A   Clear
3:55 AM 33.8 °F - 32.0 °F 93% 30.09 in 5.0 mi Calm Calm - N/A   Clear
4:15 AM 33.8 °F - 32.0 °F 93% 30.08 in 7.0 mi Calm Calm - N/A   Clear
4:35 AM 32.0 °F - 32.0 °F 100% 30.08 in 5.0 mi Calm Calm - N/A   Clear
4:55 AM 32.0 °F 27.5 °F 32.0 °F 100% 30.08 in 7.0 mi SSE 4.6 mph - N/A   Clear
5:15 AM 32.0 °F 26.4 °F 32.0 °F 100% 30.07 in 10.0 mi SE 5.8 mph - N/A   Clear
5:35 AM 33.8 °F 27.7 °F 32.0 °F 93% 30.07 in 10.0 mi SE 6.9 mph - N/A   Clear
5:55 AM 33.8 °F 28.6 °F 32.0 °F 93% 30.06 in 10.0 mi SE 5.8 mph - N/A   Clear
6:15 AM 33.8 °F 29.6 °F 32.0 °F 93% 30.06 in 10.0 mi SE 4.6 mph - N/A   Clear
6:35 AM 33.8 °F 29.6 °F 32.0 °F 93% 30.05 in 10.0 mi SE 4.6 mph - N/A   Clear
6:55 AM 33.8 °F 27.7 °F 32.0 °F 93% 30.05 in 10.0 mi SE 6.9 mph - N/A   Clear
7:15 AM 33.8 °F 27.7 °F 32.0 °F 93% 30.05 in 10.0 mi SSE 6.9 mph - N/A   Clear
7:35 AM 33.8 °F 30.8 °F 32.0 °F 93% 30.05 in 7.0 mi SSE 3.5 mph - N/A   Clear
8:15 AM 35.6 °F - 32.0 °F 87% 30.06 in 10.0 mi Calm Calm - N/A   Clear
8:35 AM 37.4 °F 34.9 °F 33.8 °F 87% 30.06 in 7.0 mi SSE 3.5 mph - N/A   Clear
8:55 AM 41.0 °F 39.0 °F 35.6 °F 81% 30.07 in 10.0 mi SE 3.5 mph - N/A   Clear
9:15 AM 42.8 °F 39.3 °F 35.6 °F 76% 30.06 in 10.0 mi SSE 5.8 mph - N/A   Clear
9:35 AM 44.6 °F 39.2 °F 35.6 °F 71% 30.05 in 10.0 mi SSE 10.4 mph - N/A   Clear
9:55 AM 46.4 °F 40.7 °F 35.6 °F 66% 30.06 in 10.0 mi SSE 12.7 mph 17.3 mph N/A   Clear
10:15 AM 46.4 °F 41.1 °F 35.6 °F 66% 30.05 in 10.0 mi South 11.5 mph 16.1 mph N/A   Clear
10:35 AM 50.0 °F - 35.6 °F 58% 30.05 in 10.0 mi SSE 10.4 mph - N/A   Clear
10:55 AM 51.8 °F - 37.4 °F 58% 30.04 in 10.0 mi SSE 11.5 mph - N/A   Clear
11:15 AM 53.6 °F - 37.4 °F 54% 30.04 in 10.0 mi South 9.2 mph - N/A   Clear
11:35 AM 55.4 °F - 37.4 °F 51% 30.04 in 10.0 mi South 12.7 mph - N/A   Clear
11:55 AM 59.0 °F - 39.2 °F 48% 30.03 in 10.0 mi South 9.2 mph - N/A   Clear
12:15 PM 59.0 °F - 39.2 °F 48% 30.02 in 10.0 mi South 9.2 mph 17.3 mph N/A   Clear
12:35 PM 62.6 °F - 41.0 °F 45% 30.01 in 10.0 mi South 12.7 mph 16.1 mph N/A   Clear
12:55 PM 62.6 °F - 41.0 °F 45% 30.00 in 10.0 mi South 8.1 mph - N/A   Clear
1:15 PM 64.4 °F - 41.0 °F 42% 29.99 in 10.0 mi South 11.5 mph - N/A   Clear
1:35 PM 68.0 °F - 41.0 °F 37% 29.97 in 10.0 mi South 11.5 mph - N/A   Clear
1:55 PM 68.0 °F - 41.0 °F 37% 29.96 in 10.0 mi South 12.7 mph - N/A   Clear
2:15 PM 69.8 °F - 42.8 °F 38% 29.96 in 10.0 mi South 12.7 mph 18.4 mph N/A   Clear
2:35 PM 69.8 °F - 42.8 °F 38% 29.95 in 10.0 mi South 15.0 mph - N/A   Clear
2:55 PM 71.6 °F - 42.8 °F 35% 29.94 in 10.0 mi South 15.0 mph 20.7 mph N/A   Clear
3:15 PM 71.6 °F - 42.8 °F 35% 29.93 in 10.0 mi South 16.1 mph - N/A   Clear
3:35 PM 71.6 °F - 42.8 °F 35% 29.93 in 10.0 mi SSE 18.4 mph 21.9 mph N/A   Clear
3:55 PM 71.6 °F - 42.8 °F 35% 29.92 in 10.0 mi South 18.4 mph 23.0 mph N/A   Clear
4:15 PM 71.6 °F - 42.8 °F 35% 29.92 in 10.0 mi SSE 15.0 mph - N/A   Clear
4:35 PM 69.8 °F - 42.8 °F 38% 29.92 in 10.0 mi SSE 16.1 mph - N/A   Clear
4:55 PM 69.8 °F - 44.6 °F 40% 29.92 in 10.0 mi SSE 16.1 mph - N/A   Clear
5:15 PM 68.0 °F - 42.8 °F 40% 29.93 in 10.0 mi SSE 15.0 mph - N/A   Clear
5:35 PM 66.2 °F - 42.8 °F 43% 29.93 in 10.0 mi SSE 12.7 mph - N/A   Clear
6:15 PM 62.6 °F - 42.8 °F 48% 29.93 in 10.0 mi SSE 11.5 mph - N/A   Clear
6:35 PM 62.6 °F - 42.8 °F 48% 29.94 in 10.0 mi SSE 10.4 mph - N/A   Clear
6:55 PM 60.8 °F - 44.6 °F 55% 29.94 in 10.0 mi SSE 10.4 mph - N/A   Clear
7:15 PM 60.8 °F - 44.6 °F 55% 29.94 in 10.0 mi South 10.4 mph - N/A   Clear
7:35 PM 60.8 °F - 44.6 °F 55% 29.95 in 10.0 mi South 10.4 mph - N/A   Clear
7:55 PM 60.8 °F - 44.6 °F 55% 29.95 in 10.0 mi South 10.4 mph - N/A   Clear
8:15 PM 60.8 °F - 44.6 °F 55% 29.95 in 10.0 mi SSE 9.2 mph - N/A   Clear
8:55 PM 60.8 °F - 42.8 °F 52% 29.96 in 10.0 mi South 12.7 mph - N/A   Clear
9:35 PM 59.0 °F - 41.0 °F 51% 29.96 in 10.0 mi South 12.7 mph - N/A   Clear
9:55 PM 60.8 °F - 39.2 °F 45% 29.96 in 10.0 mi South 11.5 mph - N/A   Scattered Clouds
10:15 PM 59.0 °F - 37.4 °F 45% 29.97 in 10.0 mi South 12.7 mph - N/A   Scattered Clouds
10:35 PM 59.0 °F - 37.4 °F 45% 29.97 in 10.0 mi South 12.7 mph - N/A   Clear
11:15 PM 59.0 °F - 37.4 °F 45% 29.97 in 10.0 mi South 15.0 mph 20.7 mph N/A   Clear
11:35 PM 59.0 °F - 37.4 °F 45% 29.97 in 10.0 mi South 12.7 mph 19.6 mph N/A   Clear
11:55 PM 57.2 °F - 37.4 °F 48% 29.97 in 10.0 mi South 13.8 mph - N/A   Clear